SCP
0 0 0 0 0 0 0 0 0 0 0 0 -0 -0 0 0 0 0 0 0 0 0 0 0 0 0 -0 0 0 0 0 0
0 0 0 0 0 0 0 0 0 0 0 0 -0 0 0 0 0 0 0 0 0 0 0 0 0 0 0 0 0 0 0 0
0 0 0 0 0 0 0 0 0 0 0 0 -0 -0 0 0 0 0 0 0 0 0 0 0 0 0 0 0 0 0 0 0
0 0 0 0 0 0 0 0 0 0 0 0 -0 0 0 0 0 0 0 0 0 0 0 0 0 0 0 0 0 0 0 0
0 0 0 0 0 -0 0 0 0 0 0 0 -0 0 0 0 0 0 0 -0 -0 -0 -0 0 0 0 0 0 0 0 0 0
0 0 0 0 0 0 0 0 0 0 0 0 -0 -0 0 0 0 0 -0 -0 -0 -0 0 -0 0 0 0 0 0 0 0 0
0 0 0 0 0 0 0 0 0 0 0 0 -0 -0 -0 0 0 -0 -0 -0 0 0 0 0 0 0 0 0 0 0 0 0
0 0 0 0 0 0 0 0 0 0 -0 0 -0 -0 -0 -0 0 -0 -0 0 -0 -0 0 0 0 -0 -0 0 0 0 0 0
0 0 0 0 0 0 0 0 0 0 0 -0 -0 -0 -0 -0 -0 -0 0 -0 -0 -0 0 -0 0 -0 -0 -0 0 0 0 0
0 0 0 0 0 0 0 0 0 0 0 0 0 0 -0 0 -0 0 0 -0 0 -0 -0 -0 -0 -0 -0 -0 0 0 0 0
0 0 0 0 0 0 0 0 0 0 0 0 0 0 -0 -0 -0 0 0 0 0 0 0 -0 -0 -0 -0 0 0 -0 0 -0
0 0 0 0 0 0 0 0 0 0 0 0 0 0 0 0 -0 -0 -0 -0 -0 -0 0 -0 0 0 -0 -0 0 0 -0 0
0 0 0 0 0 0 0 0 0 0 0 0 0 0 0 0 0 0 0 -0 -0 -0 -0 -0 -0 -0 -0 -0 -0 -0 -0 -0
0 0 0 0 0 0 0 0 0 0 0 0 0 0 0 0 0 0 0 0 0 0 0 0 0 -0 -0 -0 -0 -0 -0 -0
0 0 0 0 0 0 0 0 0 0 0 0 0 0 0 0 0 0 0 0 0 0 0 0 0 0 0 0 -0 -0 -0 -0
0 0 0 0 0 0 0 0 0 0 0 0 0 0 0 0 0 0 0 -0 0 0 0 0 0 0 0 0 0 0 0 0
0 0 0 0 0 0 0 0 0 0 0 0 0 0 0 0 0 0 0 0 0 0 0 0 0 -0 0 0 -0 -0 0 0
0 0 0 0 0 0 0 0 0 0 0 0 0 0 0 0 0 0 0 0 0 0 0 0 0 0 0 -0 -0 0 0 0
0 0 0 0 0 0 0 0 0 0 0 0 0 0 0 0 0 0 0 0 0 0 0 0 0 0 0 0 0 0 0 0
0 0 0 0 0 0 0 0 0 0 0 0 0 0 0 0 0 0 0 0 0 0 0 0 0 0 0 0 0 0 0 0
Wind_Speed_500mb
34 27 22 19 19 20 15 11 11 6 8 13 14 11 7 5 4 7 8 10 11 6 6 8 17 21 13 12 7 21 32 43
36 29 23 22 21 18 15 11 11 8 13 17 15 9 5 4 1 2 8 11 12 13 11 10 18 19 13 20 16 36 36 32
37 34 29 22 22 18 15 11 11 12 18 19 14 7 4 4 1 3 6 12 16 14 12 20 27 21 14 22 25 47 34 32
43 41 34 25 24 20 16 12 13 14 20 20 15 11 5 5 3 5 8 10 10 18 24 30 30 22 23 25 30 45 44 38
47 45 39 30 26 23 19 15 18 19 24 22 17 12 7 9 12 10 10 19 23 33 34 32 29 23 21 24 28 33 47 33
51 49 45 38 32 30 25 20 24 26 26 25 16 14 8 17 21 23 32 35 36 31 31 30 28 20 24 31 31 38 39 38
49 50 50 44 35 34 29 24 30 33 30 26 23 22 16 20 24 41 38 39 34 28 25 19 21 18 21 24 26 31 32 29
53 53 51 48 40 38 34 31 36 38 35 31 25 26 21 25 29 38 33 31 28 24 19 17 17 18 17 21 22 29 25 27
55 56 52 48 46 41 42 37 43 45 40 36 30 30 32 35 33 29 27 27 27 26 17 18 27 21 19 23 30 31 26 33
51 50 50 52 53 51 50 45 51 52 46 40 33 35 36 35 38 34 30 32 35 34 34 31 32 31 29 28 30 33 33 34
54 52 49 55 61 60 58 54 58 59 52 46 41 40 41 39 40 41 36 37 35 34 32 34 41 34 31 30 36 42 44 42
55 56 53 57 67 68 65 61 60 62 59 53 49 41 43 48 47 43 40 40 41 40 40 37 38 36 31 33 33 37 42 40
57 60 57 62 70 74 71 62 67 69 66 60 53 52 47 46 48 48 42 40 41 36 35 34 38 41 37 33 29 32 30 34
45 53 56 65 73 76 73 70 75 75 73 67 58 53 53 54 56 51 43 36 31 27 32 41 40 41 40 36 32 28 21 22
35 48 55 64 73 72 73 74 78 80 79 74 68 63 59 56 51 48 38 33 26 29 35 42 40 35 32 29 26 22 19 19
34 40 48 58 71 74 77 78 82 82 83 80 74 67 63 58 50 41 33 23 20 28 33 39 41 36 30 26 24 23 20 19
34 39 45 55 70 77 79 80 86 87 85 84 80 75 71 65 59 46 33 30 28 30 31 37 35 36 35 32 29 25 24 28
42 42 42 51 69 80 81 82 89 90 88 86 84 79 75 70 63 56 48 44 49 45 42 36 34 33 33 32 31 31 33 26
39 40 43 51 66 80 82 82 88 90 88 86 84 79 75 69 62 53 53 54 58 54 47 42 37 35 33 31 31 34 35 23
43 44 47 53 63 80 85 84 88 93 91 88 83 78 74 68 62 57 57 56 54 54 49 44 40 37 35 33 32 33 31 24
Wind_Direction_500mb
214 217 225 223 227 240 248 262 260 241 198 186 199 184 181 165 136 129 185 194 205 215 213 168 160 164 162 155 154 188 184 168
216 216 219 220 224 233 243 259 258 225 185 185 203 178 166 140 107 227 213 211 220 218 219 201 176 166 150 152 149 172 155 170
217 220 220 220 220 225 235 243 236 203 182 183 186 162 127 97 7 263 254 238 216 214 214 172 160 145 145 196 152 178 164 146
220 221 222 221 219 219 229 227 214 196 174 178 177 149 123 107 112 106 164 157 148 160 142 141 149 151 132 152 156 175 156 152
223 223 221 220 222 214 221 215 198 184 174 172 181 143 130 116 113 118 160 157 138 130 126 134 136 144 158 148 145 145 175 180
226 224 221 218 218 210 211 209 189 179 176 173 166 128 138 123 132 124 123 126 132 128 131 136 131 115 136 157 153 160 168 177
230 227 224 221 219 212 205 204 185 177 181 177 152 151 136 139 141 138 132 132 133 132 134 127 132 138 138 165 166 167 174 191
239 234 229 226 218 213 199 200 185 176 182 175 159 153 156 152 150 158 147 141 141 142 150 150 143 153 170 175 160 170 178 175
247 239 231 224 216 207 199 197 186 176 180 172 157 151 144 154 156 156 159 161 153 149 149 161 142 130 151 134 149 142 139 156
253 243 232 220 212 205 199 195 187 181 180 171 162 158 148 150 163 157 146 142 147 139 130 133 134 120 120 146 155 155 148 143
248 237 227 216 209 204 200 194 187 183 180 172 169 168 159 155 149 148 153 146 144 139 135 126 117 120 129 140 133 136 135 135
243 239 229 214 207 204 201 196 185 181 178 174 173 172 170 164 160 156 156 149 142 139 133 135 135 132 137 140 141 145 146 143
244 237 223 213 206 203 200 191 185 182 175 175 175 177 180 175 162 155 152 150 142 137 137 147 145 142 142 141 141 142 143 139
238 228 219 211 206 203 198 189 185 183 176 177 177 173 173 168 162 156 158 159 155 162 157 152 152 149 144 144 142 141 147 138
243 229 220 208 205 202 196 191 188 183 179 180 181 176 173 175 174 168 168 170 179 176 175 168 164 163 155 157 158 161 166 165
252 234 223 213 206 199 197 193 189 180 180 184 184 181 179 180 181 176 179 206 203 186 185 178 172 168 168 170 166 162 159 155
259 246 237 221 208 200 198 197 190 183 185 187 189 188 187 185 186 184 183 187 184 176 177 175 178 175 171 169 165 163 156 144
274 257 241 226 209 201 199 199 196 188 188 189 191 192 191 192 195 193 192 187 176 180 181 182 184 180 179 178 176 169 163 156
277 257 241 227 213 204 201 201 200 195 193 193 193 195 196 196 198 204 208 197 184 181 183 182 185 186 187 189 183 178 170 164
280 256 241 229 217 207 203 203 203 201 196 196 196 196 198 199 199 203 209 204 198 190 186 186 187 192 194 191 194 193 187 172
Wind_Speed_850mb
34 27 22 19 19 20 15 11 11 6 8 13 14 11 7 5 4 7 8 10 11 6 6 8 17 21 13 12 7 21 32 43
36 29 23 22 21 18 15 11 11 8 13 17 15 9 5 4 1 2 8 11 12 13 11 10 18 19 13 20 16 36 36 32
37 34 29 22 22 18 15 11 11 12 18 19 14 7 4 4 1 3 6 12 16 14 12 20 27 21 14 22 25 47 34 32
43 41 34 25 24 20 16 12 13 14 20 20 15 11 5 5 3 5 8 10 10 18 24 30 30 22 23 25 30 45 44 38
47 45 39 30 26 23 19 15 18 19 24 22 17 12 7 9 12 10 10 19 23 33 34 32 29 23 21 24 28 33 47 33
51 49 45 38 32 30 25 20 24 26 26 25 16 14 8 17 21 23 32 35 36 31 31 30 28 20 24 31 31 38 39 38
49 50 50 44 35 34 29 24 30 33 30 26 23 22 16 20 24 41 38 39 34 28 25 19 21 18 21 24 26 31 32 29
53 53 51 48 40 38 34 31 36 38 35 31 25 26 21 25 29 38 33 31 28 24 19 17 17 18 17 21 22 29 25 27
55 56 52 48 46 41 42 37 43 45 40 36 30 30 32 35 33 29 27 27 27 26 17 18 27 21 19 23 30 31 26 33
51 50 50 52 53 51 50 45 51 52 46 40 33 35 36 35 38 34 30 32 35 34 34 31 32 31 29 28 30 33 33 34
54 52 49 55 61 60 58 54 58 59 52 46 41 40 41 39 40 41 36 37 35 34 32 34 41 34 31 30 36 42 44 42
55 56 53 57 67 68 65 61 60 62 59 53 49 41 43 48 47 43 40 40 41 40 40 37 38 36 31 33 33 37 42 40
57 60 57 62 70 74 71 62 67 69 66 60 53 52 47 46 48 48 42 40 41 36 35 34 38 41 37 33 29 32 30 34
45 53 56 65 73 76 73 70 75 75 73 67 58 53 53 54 56 51 43 36 31 27 32 41 40 41 40 36 32 28 21 22
35 48 55 64 73 72 73 74 78 80 79 74 68 63 59 56 51 48 38 33 26 29 35 42 40 35 32 29 26 22 19 19
34 40 48 58 71 74 77 78 82 82 83 80 74 67 63 58 50 41 33 23 20 28 33 39 41 36 30 26 24 23 20 19
34 39 45 55 70 77 79 80 86 87 85 84 80 75 71 65 59 46 33 30 28 30 31 37 35 36 35 32 29 25 24 28
42 42 42 51 69 80 81 82 89 90 88 86 84 79 75 70 63 56 48 44 49 45 42 36 34 33 33 32 31 31 33 26
39 40 43 51 66 80 82 82 88 90 88 86 84 79 75 69 62 53 53 54 58 54 47 42 37 35 33 31 31 34 35 23
43 44 47 53 63 80 85 84 88 93 91 88 83 78 74 68 62 57 57 56 54 54 49 44 40 37 35 33 32 33 31 24
Wind_Direction_850mb
214 217 225 223 227 240 248 262 260 241 198 186 199 184 181 165 136 129 185 194 205 215 213 168 160 164 162 155 154 188 184 168
216 216 219 220 224 233 243 259 258 225 185 185 203 178 166 140 107 227 213 211 220 218 219 201 176 166 150 152 149 172 155 170
217 220 220 220 220 225 235 243 236 203 182 183 186 162 127 97 7 263 254 238 216 214 214 172 160 145 145 196 152 178 164 146
220 221 222 221 219 219 229 227 214 196 174 178 177 149 123 107 112 106 164 157 148 160 142 141 149 151 132 152 156 175 156 152
223 223 221 220 222 214 221 215 198 184 174 172 181 143 130 116 113 118 160 157 138 130 126 134 136 144 158 148 145 145 175 180
226 224 221 218 218 210 211 209 189 179 176 173 166 128 138 123 132 124 123 126 132 128 131 136 131 115 136 157 153 160 168 177
230 227 224 221 219 212 205 204 185 177 181 177 152 151 136 139 141 138 132 132 133 132 134 127 132 138 138 165 166 167 174 191
239 234 229 226 218 213 199 200 185 176 182 175 159 153 156 152 150 158 147 141 141 142 150 150 143 153 170 175 160 170 178 175
247 239 231 224 216 207 199 197 186 176 180 172 157 151 144 154 156 156 159 161 153 149 149 161 142 130 151 134 149 142 139 156
253 243 232 220 212 205 199 195 187 181 180 171 162 158 148 150 163 157 146 142 147 139 130 133 134 120 120 146 155 155 148 143
248 237 227 216 209 204 200 194 187 183 180 172 169 168 159 155 149 148 153 146 144 139 135 126 117 120 129 140 133 136 135 135
243 239 229 214 207 204 201 196 185 181 178 174 173 172 170 164 160 156 156 149 142 139 133 135 135 132 137 140 141 145 146 143
244 237 223 213 206 203 200 191 185 182 175 175 175 177 180 175 162 155 152 150 142 137 137 147 145 142 142 141 141 142 143 139
238 228 219 211 206 203 198 189 185 183 176 177 177 173 173 168 162 156 158 159 155 162 157 152 152 149 144 144 142 141 147 138
243 229 220 208 205 202 196 191 188 183 179 180 181 176 173 175 174 168 168 170 179 176 175 168 164 163 155 157 158 161 166 165
252 234 223 213 206 199 197 193 189 180 180 184 184 181 179 180 181 176 179 206 203 186 185 178 172 168 168 170 166 162 159 155
259 246 237 221 208 200 198 197 190 183 185 187 189 188 187 185 186 184 183 187 184 176 177 175 178 175 171 169 165 163 156 144
274 257 241 226 209 201 199 199 196 188 188 189 191 192 191 192 195 193 192 187 176 180 181 182 184 180 179 178 176 169 163 156
277 257 241 227 213 204 201 201 200 195 193 193 193 195 196 196 198 204 208 197 184 181 183 182 185 186 187 189 183 178 170 164
280 256 241 229 217 207 203 203 203 201 196 196 196 196 198 199 199 203 209 204 198 190 186 186 187 192 194 191 194 193 187 172